This is the latest recevied weather packets stored in our database for station/object KD2FGL-13. If no packets are shown the sender has not sent any weather packets the latest 10 day(s).
| Time | Temp. | Humidity | Pressure | Rain* | Wind** | Luminosity | Snow |
|---|---|---|---|---|---|---|---|
| 1777628348 | 5.56° C | 68% | 1014 hPa | 0 mm | - | - | - |
| 1777627436 | 5.56° C | 68% | 1013.8 hPa | 0 mm | - | - | - |
| 1777626525 | 5.56° C | 68% | 1013.7 hPa | 0 mm | - | - | - |
| 1777625613 | 6.11° C | 67% | 1013.6 hPa | 0 mm | - | - | - |
| 1777623485 | 6.11° C | 67% | 1013.3 hPa | 0 mm | - | - | - |
| 1777621662 | 6.67° C | 66% | 1013 hPa | 0 mm | - | - | - |
| 1777621359 | 6.67° C | 66% | 1012.9 hPa | 0 mm | - | - | - |
| 1777620446 | 7.22° C | 65% | 1013 hPa | 0 mm | - | - | - |
| 1777620142 | 7.22° C | 65% | 1012.9 hPa | 0 mm | - | - | - |
| 1777619839 | 7.22° C | 65% | 1012.9 hPa | 0 mm | - | - | - |
| 1777619534 | 7.78° C | 65% | 1012.9 hPa | 0 mm | - | - | - |
| 1777617103 | 8.33° C | 64% | 1012.6 hPa | 0 mm | - | - | - |
| 1777616192 | 8.33° C | 64% | 1012.8 hPa | 0 mm | - | - | - |
| 1777615887 | 8.33° C | 64% | 1012.8 hPa | 0 mm | - | - | - |
| 1777615280 | 8.33° C | 64% | 1012.8 hPa | 0 mm | - | - | - |
| 1777614976 | 8.33° C | 64% | 1012.9 hPa | 0 mm | - | - | - |
| 1777614671 | 8.33° C | 63% | 1012.9 hPa | 0 mm | - | - | - |
| 1777614065 | 8.89° C | 63% | 1012.8 hPa | 0 mm | - | - | - |
| 1777612848 | 8.89° C | 63% | 1012.9 hPa | 0 mm | - | - | - |
| 1777611937 | 9.44° C | 62% | 1012.8 hPa | 0 mm | - | - | - |
| 1777611329 | 9.44° C | 62% | 1012.9 hPa | 0 mm | - | - | - |
| 1777611025 | 10° C | 62% | 1012.9 hPa | 0 mm | - | - | - |
| 1777610114 | 10° C | 62% | 1013 hPa | 0 mm | - | - | - |
| 1777608594 | 10° C | 63% | 1012.8 hPa | 0 mm | - | - | - |
| 1777608290 | 10° C | 64% | 1012.7 hPa | 0 mm | - | - | - |
* Rain since midnight (hover to see other rain measurements)
** Current wind speed in m/s (hover to see current wind gust speed)